This demonstration page uses our WeatherBlox Daily Observations layout. Learn more.

41.55636, -103.73856

Hourly Observations for October 8, 2016

Temp ( °F °C ) Dew Point ( °F °C ) Humidity (%) Winds ( mph kmh ) Pressure ( in mb ) Visibility ( mi km ) Precip ( " mm )
12:53 am 00:53 Clear 37 2.8 30 -1.1 76 76 N 8 13 30.14 1021 10 16.0934 0 0
1:53 am 01:53 Clear 38 3.3 30 -1.1 73 73 NE 6 9 30.14 1021 10 16.0934 0 0
2:53 am 02:53 Clear 36 2.2 28 -2.2 73 73 N 3 6 30.14 1021 10 16.0934 0 0
3:53 am 03:53 Clear 33 0.6 28 -2.2 82 82 NNW 3 6 30.15 1021 10 16.0934 0 0
4:53 am 04:53 Clear 33 0.6 27 -2.8 78 78 W 6 9 30.16 1022 10 16.0934 0 0
5:53 am 05:53 Clear 33 0.6 27 -2.8 78 78 N 3 6 30.19 1022 10 16.0934 0 0
6:53 am 06:53 Clear 33 0.6 27 -2.8 78 78 Calm 30.23 1024 10 16.0934 0 0
7:53 am 07:53 Sunny 36 2.2 29 -1.7 76 76 W 5 7 30.26 1025 10 16.0934 0 0
8:53 am 08:53 Sunny 50 10 32 0 50 50 VRB 3 6 30.24 1024 10 16.0934 0 0
9:53 am 09:53 Sunny 56 13.3 32 0 40 40 W 3 6 30.22 1024 10 16.0934 0 0
10:53 am 10:53 Sunny 66 18.9 26 -3.3 22 22 WNW 9 15 30.21 1023 10 16.0934 0 0
11:53 am 11:53 Sunny 70 21.1 27 -2.8 20 20 undefined N/A 30.19 1022 10 16.0934 0 0
12:53 pm 12:53 Sunny 71 21.7 27 -2.8 19 19 W 9 15 30.18 1022 10 16.0934 0 0
1:53 pm 13:53 Sunny 74 23.3 27 -2.8 17 17 Calm 30.16 1021 10 16.0934 0 0
2:53 pm 14:53 Sunny 73 22.8 27 -2.8 18 18 Calm 30.15 1021 10 16.0934 0 0
3:53 pm 15:53 Sunny 74 23.3 27 -2.8 17 17 VRB 3 6 30.14 1021 10 16.0934 0 0
4:53 pm 16:53 Sunny 74 23.3 28 -2.2 18 18 ESE 5 7 30.14 1021 10 16.0934 0 0
5:53 pm 17:53 Sunny 67 19.4 31 -0.6 26 26 E 7 11 30.16 1021 10 16.0934 0 0
6:53 pm 18:53 Clear 56 13.3 33 0.6 42 42 E 6 9 30.2 1023 10 16.0934 0 0
7:53 pm 19:53 Clear 53 11.7 34 1.1 48 48 E 8 13 30.22 1023 10 16.0934 0 0
8:53 pm 20:53 Clear 50 10 35 1.7 57 57 E 7 11 30.21 1023 10 16.0934 0 0
9:53 pm 21:53 Clear 48 8.9 35 1.7 61 61 E 8 13 30.2 1023 10 16.0934 0 0
10:53 pm 22:53 Clear 50 10 36 2.2 59 59 ESE 10 17 30.17 1022 10 16.0934 0 0
11:53 pm 23:53 Clear 52 11.1 37 2.8 57 57 ESE 13 20 30.16 1021 10 16.0934 0 0

Powered by AerisWeather